Year,Month,Day,Hour,Minute,Value (Times are PST for windgust in km/hr)
2016,07,30,00,00,29.00
2016,07,30,00,01,32.20
2016,07,30,00,02,30.60
2016,07,30,00,03,59.50
2016,07,30,00,04,38.60
2016,07,30,00,05,32.20
2016,07,30,00,06,35.40
2016,07,30,00,07,30.60
2016,07,30,00,08,45.10
2016,07,30,00,09,38.60
2016,07,30,00,10,30.60
2016,07,30,00,11,35.40
2016,07,30,00,12,37.00
2016,07,30,00,13,33.80
2016,07,30,00,14,32.20
2016,07,30,00,15,30.60
2016,07,30,00,16,32.20
2016,07,30,00,17,38.60
2016,07,30,00,18,45.10
2016,07,30,00,19,29.00
2016,07,30,00,20,37.00
2016,07,30,00,21,32.20
2016,07,30,00,22,33.80
2016,07,30,00,23,33.80
2016,07,30,00,24,41.80
2016,07,30,00,25,29.00
2016,07,30,00,26,32.20
2016,07,30,00,27,33.80
2016,07,30,00,28,35.40
2016,07,30,00,29,40.20
2016,07,30,00,30,30.60
2016,07,30,00,31,22.50
2016,07,30,00,32,35.40
2016,07,30,00,33,35.40
2016,07,30,00,34,29.00
2016,07,30,00,35,30.60
2016,07,30,00,36,32.20
2016,07,30,00,37,30.60
2016,07,30,00,38,32.20
2016,07,30,00,39,41.80
2016,07,30,00,40,32.20
2016,07,30,00,41,25.70
2016,07,30,00,42,30.60
2016,07,30,00,43,32.20
2016,07,30,00,44,35.40
2016,07,30,00,45,29.00
2016,07,30,00,46,32.20
2016,07,30,00,47,32.20
2016,07,30,00,48,29.00
2016,07,30,00,49,32.20
2016,07,30,00,50,30.60
2016,07,30,00,51,30.60
2016,07,30,00,52,25.70
2016,07,30,00,53,29.00
2016,07,30,00,54,29.00
2016,07,30,00,55,24.20
2016,07,30,00,56,33.80
2016,07,30,00,57,30.60
2016,07,30,00,58,37.00
2016,07,30,00,59,29.00
2016,07,30,01,00,33.80
2016,07,30,01,01,29.00
2016,07,30,01,02,20.90
2016,07,30,01,03,19.30
2016,07,30,01,04,29.00
2016,07,30,01,05,22.50
2016,07,30,01,06,29.00
2016,07,30,01,07,30.60
2016,07,30,01,08,29.00
2016,07,30,01,09,29.00
2016,07,30,01,10,25.70
2016,07,30,01,11,33.80
2016,07,30,01,12,30.60
2016,07,30,01,13,29.00
2016,07,30,01,14,22.50
2016,07,30,01,15,25.70
2016,07,30,01,16,29.00
2016,07,30,01,17,22.50
2016,07,30,01,18,37.00
2016,07,30,01,19,27.40
2016,07,30,01,20,25.70
2016,07,30,01,21,24.20
2016,07,30,01,22,30.60
2016,07,30,01,23,17.70
2016,07,30,01,24,27.40
2016,07,30,01,25,22.50
2016,07,30,01,26,20.90
2016,07,30,01,27,14.50
2016,07,30,01,28,20.90
2016,07,30,01,29,33.80
2016,07,30,01,30,22.50
2016,07,30,01,31,29.00
2016,07,30,01,32,17.70
2016,07,30,01,33,32.20
2016,07,30,01,34,24.20
2016,07,30,01,35,24.20
2016,07,30,01,36,37.00
2016,07,30,01,37,24.20
2016,07,30,01,38,20.90
2016,07,30,01,39,25.70
2016,07,30,01,40,35.40
2016,07,30,01,41,32.20
2016,07,30,01,42,35.40
2016,07,30,01,43,27.40
2016,07,30,01,44,29.00
2016,07,30,01,45,29.00
2016,07,30,01,46,29.00
2016,07,30,01,47,25.70
2016,07,30,01,48,25.70
2016,07,30,01,49,29.00
2016,07,30,01,50,25.70
2016,07,30,01,51,33.80
2016,07,30,01,52,27.40
2016,07,30,01,53,20.90
2016,07,30,01,54,22.50
2016,07,30,01,55,20.90
2016,07,30,01,56,19.30
2016,07,30,01,57,20.90
2016,07,30,01,58,19.30
2016,07,30,01,59,22.50
2016,07,30,02,00,22.50
2016,07,30,02,01,24.20
2016,07,30,02,02,24.20
2016,07,30,02,03,27.40
2016,07,30,02,04,30.60
2016,07,30,02,05,29.00
2016,07,30,02,06,19.30
2016,07,30,02,07,29.00
2016,07,30,02,08,25.70
2016,07,30,02,09,41.80
2016,07,30,02,10,38.60
2016,07,30,02,11,46.70
2016,07,30,02,12,32.20
2016,07,30,02,13,25.70
2016,07,30,02,14,27.40
2016,07,30,02,15,38.60
2016,07,30,02,16,35.40
2016,07,30,02,17,27.40
2016,07,30,02,18,20.90
2016,07,30,02,19,30.60
2016,07,30,02,20,22.50
2016,07,30,02,21,33.80
2016,07,30,02,22,24.20
2016,07,30,02,23,20.90
2016,07,30,02,24,20.90
2016,07,30,02,25,33.80
2016,07,30,02,26,22.50
2016,07,30,02,27,24.20
2016,07,30,02,28,24.20
2016,07,30,02,29,22.50
2016,07,30,02,30,35.40
2016,07,30,02,31,22.50
2016,07,30,02,32,32.20
2016,07,30,02,33,20.90
2016,07,30,02,34,24.20
2016,07,30,02,35,24.20
2016,07,30,02,36,22.50
2016,07,30,02,37,22.50
2016,07,30,02,38,29.00
2016,07,30,02,39,32.20
2016,07,30,02,40,22.50
2016,07,30,02,41,20.90
2016,07,30,02,42,22.50
2016,07,30,02,43,33.80
2016,07,30,02,44,32.20
2016,07,30,02,45,24.20
2016,07,30,02,46,37.00
2016,07,30,02,47,22.50
2016,07,30,02,48,30.60
2016,07,30,02,49,37.00
2016,07,30,02,50,25.70
2016,07,30,02,51,25.70
2016,07,30,02,52,25.70
2016,07,30,02,53,32.20
2016,07,30,02,54,25.70
2016,07,30,02,55,29.00
2016,07,30,02,56,22.50
2016,07,30,02,57,29.00
2016,07,30,02,58,25.70
2016,07,30,02,59,25.70
2016,07,30,03,00,20.90
2016,07,30,03,01,22.50
2016,07,30,03,02,20.90
2016,07,30,03,03,20.90
2016,07,30,03,04,17.70
2016,07,30,03,05,19.30
2016,07,30,03,06,25.70
2016,07,30,03,07,20.90
2016,07,30,03,08,20.90
2016,07,30,03,09,17.70
2016,07,30,03,10,24.20
2016,07,30,03,11,27.40
2016,07,30,03,12,20.90
2016,07,30,03,13,24.20
2016,07,30,03,14,29.00
2016,07,30,03,15,17.70
2016,07,30,03,16,30.60
2016,07,30,03,17,22.50
2016,07,30,03,18,32.20
2016,07,30,03,19,37.00
2016,07,30,03,20,27.40
2016,07,30,03,21,29.00
2016,07,30,03,22,29.00
2016,07,30,03,23,30.60
2016,07,30,03,24,29.00
2016,07,30,03,25,29.00
2016,07,30,03,26,33.80
2016,07,30,03,27,30.60
2016,07,30,03,28,22.50
2016,07,30,03,29,20.90
2016,07,30,03,30,25.70
2016,07,30,03,31,20.90
2016,07,30,03,32,24.20
2016,07,30,03,33,19.30
2016,07,30,03,34,20.90
2016,07,30,03,35,14.50
2016,07,30,03,36,20.90
2016,07,30,03,37,14.50
2016,07,30,03,38,20.90
2016,07,30,03,39,24.20
2016,07,30,03,40,17.70
2016,07,30,03,41,14.50
2016,07,30,03,42,14.50
2016,07,30,03,43,22.50
2016,07,30,03,44,19.30
2016,07,30,03,45,20.90
2016,07,30,03,46,22.50
2016,07,30,03,47,24.20
2016,07,30,03,48,22.50
2016,07,30,03,49,30.60
2016,07,30,03,50,27.40
2016,07,30,03,51,30.60
2016,07,30,03,52,33.80
2016,07,30,03,53,24.20
2016,07,30,03,54,29.00
2016,07,30,03,55,22.50
2016,07,30,03,56,29.00
2016,07,30,03,57,35.40
2016,07,30,03,58,32.20
2016,07,30,03,59,29.00
2016,07,30,04,00,24.20
2016,07,30,04,01,25.70
2016,07,30,04,02,22.50
2016,07,30,04,03,25.70
2016,07,30,04,04,27.40
2016,07,30,04,05,29.00
2016,07,30,04,06,30.60
2016,07,30,04,07,24.20
2016,07,30,04,08,33.80
2016,07,30,04,09,33.80
2016,07,30,04,10,22.50
2016,07,30,04,11,25.70
2016,07,30,04,12,24.20
2016,07,30,04,13,24.20
2016,07,30,04,14,35.40
2016,07,30,04,15,40.20
2016,07,30,04,16,33.80
2016,07,30,04,17,29.00
2016,07,30,04,18,33.80
2016,07,30,04,19,29.00
2016,07,30,04,20,29.00
2016,07,30,04,21,32.20
2016,07,30,04,22,29.00
2016,07,30,04,23,24.20
2016,07,30,04,24,25.70
2016,07,30,04,25,20.90
2016,07,30,04,26,19.30
2016,07,30,04,27,19.30
2016,07,30,04,28,24.20
2016,07,30,04,29,22.50
2016,07,30,04,30,22.50
2016,07,30,04,31,24.20
2016,07,30,04,32,24.20
2016,07,30,04,33,29.00
2016,07,30,04,34,20.90
2016,07,30,04,35,25.70
2016,07,30,04,36,20.90
2016,07,30,04,37,22.50
2016,07,30,04,38,22.50
2016,07,30,04,39,19.30
2016,07,30,04,40,25.70
2016,07,30,04,41,29.00
2016,07,30,04,42,17.70
2016,07,30,04,43,17.70
2016,07,30,04,44,12.90
2016,07,30,04,45,22.50
2016,07,30,04,46,24.20
2016,07,30,04,47,32.20
2016,07,30,04,48,38.60
2016,07,30,04,49,29.00
2016,07,30,04,50,25.70
2016,07,30,04,51,27.40
2016,07,30,04,52,29.00
2016,07,30,04,53,33.80
2016,07,30,04,54,30.60
2016,07,30,04,55,22.50
2016,07,30,04,56,19.30
2016,07,30,04,57,30.60
2016,07,30,04,58,20.90
2016,07,30,04,59,25.70
2016,07,30,05,00,22.50
2016,07,30,05,01,19.30
2016,07,30,05,02,19.30
2016,07,30,05,03,19.30
2016,07,30,05,04,19.30
2016,07,30,05,05,17.70
2016,07,30,05,06,9.60
2016,07,30,05,07,19.30
2016,07,30,05,08,11.30
2016,07,30,05,09,19.30
2016,07,30,05,10,14.50
2016,07,30,05,11,17.70
2016,07,30,05,12,25.70
2016,07,30,05,13,20.90
2016,07,30,05,14,12.90
2016,07,30,05,15,14.50
2016,07,30,05,16,25.70
2016,07,30,05,17,22.50
2016,07,30,05,18,19.30
2016,07,30,05,19,22.50
2016,07,30,05,20,19.30
2016,07,30,05,21,17.70
2016,07,30,05,22,24.20
2016,07,30,05,23,17.70
2016,07,30,05,24,14.50
2016,07,30,05,25,11.30
2016,07,30,05,26,14.50
2016,07,30,05,27,12.90
2016,07,30,05,28,11.30
2016,07,30,05,29,6.40
2016,07,30,05,30,8.10
2016,07,30,05,31,11.30
2016,07,30,05,32,17.70
2016,07,30,05,33,8.10
2016,07,30,05,34,12.90
2016,07,30,05,35,16.10
2016,07,30,05,36,9.60
2016,07,30,05,37,8.10
2016,07,30,05,38,8.10
2016,07,30,05,39,8.10
2016,07,30,05,40,6.40
2016,07,30,05,41,8.10
2016,07,30,05,42,12.90
2016,07,30,05,43,6.40
2016,07,30,05,44,17.70
2016,07,30,05,45,12.90
2016,07,30,05,46,27.40
2016,07,30,05,47,22.50
2016,07,30,05,48,14.50
2016,07,30,05,49,8.10
2016,07,30,05,50,11.30
2016,07,30,05,51,11.30
2016,07,30,05,52,16.10
2016,07,30,05,53,12.90
2016,07,30,05,54,17.70
2016,07,30,05,55,12.90
2016,07,30,05,56,8.10
2016,07,30,05,57,19.30
2016,07,30,05,58,24.20
2016,07,30,05,59,29.00
2016,07,30,06,00,29.00
2016,07,30,06,01,29.00
2016,07,30,06,02,30.60
2016,07,30,06,03,29.00
2016,07,30,06,04,17.70
2016,07,30,06,05,22.50
2016,07,30,06,06,17.70
2016,07,30,06,07,12.90
2016,07,30,06,08,17.70
2016,07,30,06,09,30.60
2016,07,30,06,10,20.90
2016,07,30,06,11,22.50
2016,07,30,06,12,22.50
2016,07,30,06,13,20.90
2016,07,30,06,14,14.50
2016,07,30,06,15,12.90
2016,07,30,06,16,17.70
2016,07,30,06,17,20.90
2016,07,30,06,18,17.70
2016,07,30,06,19,17.70
2016,07,30,06,20,14.50
2016,07,30,06,21,17.70
2016,07,30,06,22,14.50
2016,07,30,06,23,17.70
2016,07,30,06,24,19.30
2016,07,30,06,25,17.70
2016,07,30,06,26,14.50
2016,07,30,06,27,12.90
2016,07,30,06,28,12.90
2016,07,30,06,29,14.50
2016,07,30,06,30,22.50
2016,07,30,06,31,17.70
2016,07,30,06,32,17.70
2016,07,30,06,33,12.90
2016,07,30,06,34,12.90
2016,07,30,06,35,9.60
2016,07,30,06,36,14.50
2016,07,30,06,37,11.30
2016,07,30,06,38,17.70
2016,07,30,06,39,25.70
2016,07,30,06,40,17.70
2016,07,30,06,41,12.90
2016,07,30,06,42,14.50
2016,07,30,06,43,24.20
2016,07,30,06,44,22.50
2016,07,30,06,45,17.70
2016,07,30,06,46,19.30
2016,07,30,06,47,14.50
2016,07,30,06,48,17.70
2016,07,30,06,49,14.50
2016,07,30,06,50,19.30
2016,07,30,06,51,17.70
2016,07,30,06,52,20.90
2016,07,30,06,53,20.90
2016,07,30,06,54,24.20
2016,07,30,06,55,25.70
2016,07,30,06,56,12.90
2016,07,30,06,57,17.70
2016,07,30,06,58,17.70
2016,07,30,06,59,27.40
2016,07,30,07,00,25.70
2016,07,30,07,01,29.00
2016,07,30,07,02,27.40
2016,07,30,07,03,30.60
2016,07,30,07,04,29.00
2016,07,30,07,05,20.90
2016,07,30,07,06,22.50
2016,07,30,07,07,20.90
2016,07,30,07,08,22.50
2016,07,30,07,09,32.20
2016,07,30,07,10,32.20
2016,07,30,07,11,25.70
2016,07,30,07,12,22.50
2016,07,30,07,13,33.80
2016,07,30,07,14,33.80
2016,07,30,07,15,30.60
2016,07,30,07,16,32.20
2016,07,30,07,17,40.20
2016,07,30,07,18,38.60
2016,07,30,07,19,30.60
2016,07,30,07,20,25.70
2016,07,30,07,21,30.60
2016,07,30,07,22,30.60
2016,07,30,07,23,33.80
2016,07,30,07,24,38.60
2016,07,30,07,25,24.20
2016,07,30,07,26,25.70
2016,07,30,07,27,24.20
2016,07,30,07,28,24.20
2016,07,30,07,29,25.70
2016,07,30,07,30,22.50
2016,07,30,07,31,27.40
2016,07,30,07,32,32.20
2016,07,30,07,33,32.20
2016,07,30,07,34,30.60
2016,07,30,07,35,30.60
2016,07,30,07,36,30.60
2016,07,30,07,37,29.00
2016,07,30,07,38,35.40
2016,07,30,07,39,35.40
2016,07,30,07,40,24.20
2016,07,30,07,41,24.20
2016,07,30,07,42,29.00
2016,07,30,07,43,22.50
2016,07,30,07,44,25.70
2016,07,30,07,45,29.00
2016,07,30,07,46,40.20
2016,07,30,07,47,37.00
2016,07,30,07,48,30.60
2016,07,30,07,49,30.60
2016,07,30,07,50,30.60
2016,07,30,07,51,30.60
2016,07,30,07,52,27.40
2016,07,30,07,53,25.70
2016,07,30,07,54,20.90
2016,07,30,07,55,19.30
2016,07,30,07,56,22.50
2016,07,30,07,57,32.20
2016,07,30,07,58,32.20
2016,07,30,07,59,32.20
2016,07,30,08,00,25.70
2016,07,30,08,01,14.50
2016,07,30,08,02,24.20
2016,07,30,08,03,29.00
2016,07,30,08,04,20.90
2016,07,30,08,05,19.30
2016,07,30,08,06,11.30
2016,07,30,08,07,19.30
2016,07,30,08,08,14.50
2016,07,30,08,09,24.20
2016,07,30,08,10,32.20
2016,07,30,08,11,29.00
2016,07,30,08,12,22.50
2016,07,30,08,13,29.00
2016,07,30,08,14,32.20
2016,07,30,08,15,19.30
2016,07,30,08,16,17.70
2016,07,30,08,17,20.90
2016,07,30,08,18,19.30
2016,07,30,08,19,17.70
2016,07,30,08,20,29.00
2016,07,30,08,21,33.80
2016,07,30,08,22,29.00
2016,07,30,08,23,29.00
2016,07,30,08,24,30.60
2016,07,30,08,25,32.20
2016,07,30,08,26,24.20
2016,07,30,08,27,20.90
2016,07,30,08,28,25.70
2016,07,30,08,29,17.70
2016,07,30,08,30,17.70
2016,07,30,08,31,24.20
2016,07,30,08,32,24.20
2016,07,30,08,33,29.00
2016,07,30,08,34,29.00
2016,07,30,08,35,19.30
2016,07,30,08,36,33.80
2016,07,30,08,37,30.60
2016,07,30,08,38,24.20
2016,07,30,08,39,24.20
2016,07,30,08,40,32.20
2016,07,30,08,41,24.20
2016,07,30,08,42,17.70
2016,07,30,08,43,12.90
2016,07,30,08,44,20.90
2016,07,30,08,45,17.70
2016,07,30,08,46,20.90
2016,07,30,08,47,19.30
2016,07,30,08,48,19.30
2016,07,30,08,49,11.30
2016,07,30,08,50,17.70
2016,07,30,08,51,12.90
2016,07,30,08,52,29.00
2016,07,30,08,53,24.20
2016,07,30,08,54,17.70
2016,07,30,08,55,20.90
2016,07,30,08,56,19.30
2016,07,30,08,57,19.30
2016,07,30,08,58,17.70
2016,07,30,08,59,16.10
2016,07,30,09,00,17.70
2016,07,30,09,01,22.50
2016,07,30,09,02,19.30
2016,07,30,09,03,24.20
2016,07,30,09,04,22.50
2016,07,30,09,05,19.30
2016,07,30,09,06,27.40
2016,07,30,09,07,25.70
2016,07,30,09,08,19.30
2016,07,30,09,09,24.20
2016,07,30,09,10,20.90
2016,07,30,09,11,24.20
2016,07,30,09,12,20.90
2016,07,30,09,13,20.90
2016,07,30,09,14,14.50
2016,07,30,09,15,14.50
2016,07,30,09,16,12.90
2016,07,30,09,17,20.90
2016,07,30,09,18,17.70
2016,07,30,09,19,25.70
2016,07,30,09,20,22.50
2016,07,30,09,21,24.20
2016,07,30,09,22,20.90
2016,07,30,09,23,25.70
2016,07,30,09,24,29.00
2016,07,30,09,25,22.50
2016,07,30,09,26,19.30
2016,07,30,09,27,33.80
2016,07,30,09,28,27.40
2016,07,30,09,29,22.50
2016,07,30,09,30,38.60
2016,07,30,09,31,29.00
2016,07,30,09,32,20.90
2016,07,30,09,33,29.00
2016,07,30,09,34,30.60
2016,07,30,09,35,29.00
2016,07,30,09,36,29.00
2016,07,30,09,37,25.70
2016,07,30,09,38,24.20
2016,07,30,09,39,29.00
2016,07,30,09,40,22.50
2016,07,30,09,41,12.90
2016,07,30,09,42,32.20
2016,07,30,09,43,25.70
2016,07,30,09,44,22.50
2016,07,30,09,45,25.70
2016,07,30,09,46,32.20
2016,07,30,09,47,33.80
2016,07,30,09,48,40.20
2016,07,30,09,49,25.70
2016,07,30,09,50,29.00
2016,07,30,09,51,29.00
2016,07,30,09,52,24.20
2016,07,30,09,53,20.90
2016,07,30,09,54,25.70
2016,07,30,09,55,30.60
2016,07,30,09,56,35.40
2016,07,30,09,57,22.50
2016,07,30,09,58,29.00
2016,07,30,09,59,29.00
2016,07,30,10,00,27.40
2016,07,30,10,01,22.50
2016,07,30,10,02,19.30
2016,07,30,10,03,30.60
2016,07,30,10,04,35.40
2016,07,30,10,05,20.90
2016,07,30,10,06,32.20
2016,07,30,10,07,24.20
2016,07,30,10,08,35.40
2016,07,30,10,09,27.40
2016,07,30,10,10,27.40
2016,07,30,10,11,20.90
2016,07,30,10,12,29.00
2016,07,30,10,13,35.40
2016,07,30,10,14,22.50
2016,07,30,10,15,30.60
2016,07,30,10,16,35.40
2016,07,30,10,17,27.40
2016,07,30,10,18,29.00
2016,07,30,10,19,17.70
2016,07,30,10,20,16.10
2016,07,30,10,21,20.90
2016,07,30,10,22,32.20
2016,07,30,10,23,25.70
2016,07,30,10,24,37.00
2016,07,30,10,25,33.80
2016,07,30,10,26,32.20
2016,07,30,10,27,29.00
2016,07,30,10,28,38.60
2016,07,30,10,29,40.20
2016,07,30,10,30,33.80
2016,07,30,10,31,30.60
2016,07,30,10,32,30.60
2016,07,30,10,33,29.00
2016,07,30,10,34,24.20
2016,07,30,10,35,33.80
2016,07,30,10,36,25.70
2016,07,30,10,37,30.60
2016,07,30,10,38,27.40
2016,07,30,10,39,24.20
2016,07,30,10,40,38.60
2016,07,30,10,41,41.80
2016,07,30,10,42,32.20
2016,07,30,10,43,24.20
2016,07,30,10,44,22.50
2016,07,30,10,45,27.40
2016,07,30,10,46,30.60
2016,07,30,10,47,24.20
2016,07,30,10,48,19.30
2016,07,30,10,49,35.40
2016,07,30,10,50,38.60
2016,07,30,10,51,38.60
2016,07,30,10,52,30.60
2016,07,30,10,53,33.80
2016,07,30,10,54,30.60
2016,07,30,10,55,22.50
2016,07,30,10,56,22.50
2016,07,30,10,57,24.20
2016,07,30,10,58,19.30
2016,07,30,10,59,12.90
2016,07,30,11,00,33.80
2016,07,30,11,01,27.40
2016,07,30,11,02,12.90
2016,07,30,11,03,20.90
2016,07,30,11,04,24.20
2016,07,30,11,05,12.90
2016,07,30,11,06,20.90
2016,07,30,11,07,27.40
2016,07,30,11,08,32.20
2016,07,30,11,09,14.50
2016,07,30,11,10,17.70
2016,07,30,11,11,35.40
2016,07,30,11,12,29.00
2016,07,30,11,13,24.20
2016,07,30,11,14,30.60
2016,07,30,11,15,32.20
2016,07,30,11,16,33.80
2016,07,30,11,17,32.20
2016,07,30,11,18,22.50
2016,07,30,11,19,19.30
2016,07,30,11,20,24.20
2016,07,30,11,21,24.20
2016,07,30,11,22,22.50
2016,07,30,11,23,32.20
2016,07,30,11,24,32.20
2016,07,30,11,25,24.20
2016,07,30,11,26,24.20
2016,07,30,11,27,33.80
2016,07,30,11,28,25.70
2016,07,30,11,29,29.00
2016,07,30,11,30,37.00
2016,07,30,11,31,37.00
2016,07,30,11,32,24.20
2016,07,30,11,33,33.80
2016,07,30,11,34,25.70
2016,07,30,11,35,29.00
2016,07,30,11,36,25.70
2016,07,30,11,37,32.20
2016,07,30,11,38,30.60
2016,07,30,11,39,30.60
2016,07,30,11,40,29.00
2016,07,30,11,41,19.30
2016,07,30,11,42,25.70
2016,07,30,11,43,22.50
2016,07,30,11,44,16.10
2016,07,30,11,45,35.40
2016,07,30,11,46,54.70
2016,07,30,11,47,33.80
2016,07,30,11,48,30.60
2016,07,30,11,49,43.50
2016,07,30,11,50,35.40
2016,07,30,11,51,27.40
2016,07,30,11,52,24.20
2016,07,30,11,53,40.20
2016,07,30,11,54,32.20
2016,07,30,11,55,33.80
2016,07,30,11,56,35.40
2016,07,30,11,57,35.40
2016,07,30,11,58,37.00
2016,07,30,11,59,32.20
2016,07,30,12,00,38.60
2016,07,30,12,01,49.90
2016,07,30,12,02,33.80
2016,07,30,12,03,37.00
2016,07,30,12,04,33.80
2016,07,30,12,05,29.00
2016,07,30,12,06,24.20
2016,07,30,12,07,20.90
2016,07,30,12,08,32.20
2016,07,30,12,09,35.40
2016,07,30,12,10,35.40
2016,07,30,12,11,22.50
2016,07,30,12,12,35.40
2016,07,30,12,13,35.40
2016,07,30,12,14,22.50
2016,07,30,12,15,22.50
2016,07,30,12,16,29.00
2016,07,30,12,17,22.50
2016,07,30,12,18,41.80
2016,07,30,12,19,37.00
2016,07,30,12,20,22.50
2016,07,30,12,21,20.90
2016,07,30,12,22,20.90
2016,07,30,12,23,17.70
2016,07,30,12,24,17.70
2016,07,30,12,25,27.40
2016,07,30,12,26,11.30
2016,07,30,12,27,22.50
2016,07,30,12,28,35.40
2016,07,30,12,29,40.20
2016,07,30,12,30,33.80
2016,07,30,12,31,38.60
2016,07,30,12,32,35.40
2016,07,30,12,33,35.40
2016,07,30,12,34,35.40
2016,07,30,12,35,29.00
2016,07,30,12,36,27.40
2016,07,30,12,37,25.70
2016,07,30,12,38,32.20
2016,07,30,12,39,14.50
2016,07,30,12,40,20.90
2016,07,30,12,41,14.50
2016,07,30,12,42,27.40
2016,07,30,12,43,27.40
2016,07,30,12,44,22.50
2016,07,30,12,45,14.50
2016,07,30,12,46,27.40
2016,07,30,12,47,20.90
2016,07,30,12,48,20.90
2016,07,30,12,49,12.90
2016,07,30,12,50,12.90
2016,07,30,12,51,25.70
2016,07,30,12,52,27.40
2016,07,30,12,53,22.50
2016,07,30,12,54,12.90
2016,07,30,12,55,24.20
2016,07,30,12,56,27.40
2016,07,30,12,57,17.70
2016,07,30,12,58,22.50
2016,07,30,12,59,30.60
2016,07,30,13,00,30.60
2016,07,30,13,01,19.30
2016,07,30,13,02,12.90
2016,07,30,13,03,22.50
2016,07,30,13,04,20.90
2016,07,30,13,05,8.10
2016,07,30,13,06,14.50
2016,07,30,13,07,12.90
2016,07,30,13,08,19.30
2016,07,30,13,09,19.30
2016,07,30,13,10,17.70
2016,07,30,13,11,19.30
2016,07,30,13,12,17.70
2016,07,30,13,13,29.00
2016,07,30,13,14,22.50
2016,07,30,13,15,27.40
2016,07,30,13,16,20.90
2016,07,30,13,17,17.70
2016,07,30,13,18,24.20
2016,07,30,13,19,32.20
2016,07,30,13,20,24.20
2016,07,30,13,21,17.70
2016,07,30,13,22,25.70
2016,07,30,13,23,27.40
2016,07,30,13,24,11.30
2016,07,30,13,25,14.50
2016,07,30,13,26,17.70
2016,07,30,13,27,17.70
2016,07,30,13,28,19.30
2016,07,30,13,29,20.90
2016,07,30,13,30,22.50
2016,07,30,13,31,17.70
2016,07,30,13,32,20.90
2016,07,30,13,33,17.70
2016,07,30,13,34,14.50
2016,07,30,13,35,8.10
2016,07,30,13,36,20.90
2016,07,30,13,37,29.00
2016,07,30,13,38,25.70
2016,07,30,13,39,19.30
2016,07,30,13,40,16.10
2016,07,30,13,41,14.50
2016,07,30,13,42,12.90
2016,07,30,13,43,33.80
2016,07,30,13,44,17.70
2016,07,30,13,45,14.50
2016,07,30,13,46,9.60
2016,07,30,13,47,17.70
2016,07,30,13,48,12.90
2016,07,30,13,49,19.30
2016,07,30,13,50,14.50
2016,07,30,13,51,11.30
2016,07,30,13,52,22.50
2016,07,30,13,53,24.20
2016,07,30,13,54,25.70
2016,07,30,13,55,12.90
2016,07,30,13,56,9.60
2016,07,30,13,57,16.10
2016,07,30,13,58,17.70
2016,07,30,13,59,24.20
2016,07,30,14,00,14.50
2016,07,30,14,01,11.30
2016,07,30,14,02,14.50
2016,07,30,14,03,9.60
2016,07,30,14,04,12.90
2016,07,30,14,05,12.90
2016,07,30,14,06,22.50
2016,07,30,14,07,16.10
2016,07,30,14,08,22.50
2016,07,30,14,09,19.30
2016,07,30,14,10,14.50
2016,07,30,14,11,12.90
2016,07,30,14,12,17.70
2016,07,30,14,13,22.50
2016,07,30,14,14,9.60
2016,07,30,14,15,16.10
2016,07,30,14,16,20.90
2016,07,30,14,17,32.20
2016,07,30,14,18,24.20
2016,07,30,14,19,20.90
2016,07,30,14,20,25.70
2016,07,30,14,21,11.30
2016,07,30,14,22,17.70
2016,07,30,14,23,14.50
2016,07,30,14,24,20.90
2016,07,30,14,25,20.90
2016,07,30,14,26,17.70
2016,07,30,14,27,24.20
2016,07,30,14,28,12.90
2016,07,30,14,29,8.10
2016,07,30,14,30,20.90
2016,07,30,14,31,24.20
2016,07,30,14,32,27.40
2016,07,30,14,33,22.50
2016,07,30,14,34,22.50
2016,07,30,14,35,11.30
2016,07,30,14,36,20.90
2016,07,30,14,37,16.10
2016,07,30,14,38,17.70
2016,07,30,14,39,19.30
2016,07,30,14,40,20.90
2016,07,30,14,41,20.90
2016,07,30,14,42,12.90
2016,07,30,14,43,11.30
2016,07,30,14,44,14.50
2016,07,30,14,45,17.70
2016,07,30,14,46,14.50
2016,07,30,14,47,14.50
2016,07,30,14,48,9.60
2016,07,30,14,49,9.60
2016,07,30,14,50,16.10
2016,07,30,14,51,19.30
2016,07,30,14,52,32.20
2016,07,30,14,53,24.20
2016,07,30,14,54,22.50
2016,07,30,14,55,25.70
2016,07,30,14,56,24.20
2016,07,30,14,57,24.20
2016,07,30,14,58,19.30
2016,07,30,14,59,17.70
2016,07,30,15,00,20.90
2016,07,30,15,01,19.30
2016,07,30,15,02,14.50
2016,07,30,15,03,12.90
2016,07,30,15,04,9.60
2016,07,30,15,05,12.90
2016,07,30,15,06,25.70
2016,07,30,15,07,6.40
2016,07,30,15,08,12.90
2016,07,30,15,09,14.50
2016,07,30,15,10,16.10
2016,07,30,15,11,14.50
2016,07,30,15,12,6.40
2016,07,30,15,13,8.10
2016,07,30,15,14,11.30
2016,07,30,15,15,11.30
2016,07,30,15,16,19.30
2016,07,30,15,17,12.90
2016,07,30,15,18,12.90
2016,07,30,15,19,12.90
2016,07,30,15,20,9.60
2016,07,30,15,21,8.10
2016,07,30,15,22,11.30
2016,07,30,15,23,11.30
2016,07,30,15,24,9.60
2016,07,30,15,25,11.30
2016,07,30,15,26,14.50
2016,07,30,15,27,17.70
2016,07,30,15,28,22.50
2016,07,30,15,29,14.50
2016,07,30,15,30,11.30
2016,07,30,15,31,11.30
2016,07,30,15,32,20.90
2016,07,30,15,33,11.30
2016,07,30,15,34,8.10
2016,07,30,15,35,11.30
2016,07,30,15,36,11.30
2016,07,30,15,37,6.40
2016,07,30,15,38,9.60
2016,07,30,15,39,11.30
2016,07,30,15,40,9.60
2016,07,30,15,41,9.60
2016,07,30,15,42,6.40
2016,07,30,15,43,8.10
2016,07,30,15,44,9.60
2016,07,30,15,45,6.40
2016,07,30,15,46,8.10
2016,07,30,15,47,3.20
2016,07,30,15,48,6.40
2016,07,30,15,49,6.40
2016,07,30,15,50,4.80
2016,07,30,15,51,6.40
2016,07,30,15,52,8.10
2016,07,30,15,53,6.40
2016,07,30,15,54,8.10
2016,07,30,15,55,6.40
2016,07,30,15,56,9.60
2016,07,30,15,57,8.10
2016,07,30,15,58,6.40
2016,07,30,15,59,8.10
2016,07,30,16,00,8.10
2016,07,30,16,01,3.20
2016,07,30,16,02,3.20
2016,07,30,16,03,1.60
2016,07,30,16,04,8.10
2016,07,30,16,05,6.40
2016,07,30,16,06,8.10
2016,07,30,16,07,3.20
2016,07,30,16,08,8.10
2016,07,30,16,09,9.60
2016,07,30,16,10,6.40
2016,07,30,16,11,11.30
2016,07,30,16,12,14.50
2016,07,30,16,13,11.30
2016,07,30,16,14,8.10
2016,07,30,16,15,6.40
2016,07,30,16,16,8.10
2016,07,30,16,17,11.30
2016,07,30,16,18,9.60
2016,07,30,16,19,11.30
2016,07,30,16,20,14.50
2016,07,30,16,21,12.90
2016,07,30,16,22,17.70
2016,07,30,16,23,9.60
2016,07,30,16,24,12.90
2016,07,30,16,25,11.30
2016,07,30,16,26,11.30
2016,07,30,16,27,12.90
2016,07,30,16,28,9.60
2016,07,30,16,29,6.40
2016,07,30,16,30,11.30
2016,07,30,16,31,9.60
2016,07,30,16,32,8.10
2016,07,30,16,33,11.30
2016,07,30,16,34,12.90
2016,07,30,16,35,8.10
2016,07,30,16,36,9.60
2016,07,30,16,37,9.60
2016,07,30,16,38,8.10
2016,07,30,16,39,9.60
2016,07,30,16,40,12.90
2016,07,30,16,41,11.30
2016,07,30,16,42,14.50
2016,07,30,16,43,14.50
2016,07,30,16,44,17.70
2016,07,30,16,45,12.90
2016,07,30,16,46,11.30
2016,07,30,16,47,17.70
2016,07,30,16,48,14.50
2016,07,30,16,49,9.60
2016,07,30,16,50,12.90
2016,07,30,16,51,11.30
2016,07,30,16,52,8.10
2016,07,30,16,53,6.40
2016,07,30,16,54,4.80
2016,07,30,16,55,8.10
2016,07,30,16,56,6.40
2016,07,30,16,57,4.80
2016,07,30,16,58,8.10
2016,07,30,16,59,12.90
2016,07,30,17,00,9.60
2016,07,30,17,01,11.30
2016,07,30,17,02,12.90
2016,07,30,17,03,20.90
2016,07,30,17,04,6.40
2016,07,30,17,05,8.10
2016,07,30,17,06,8.10
2016,07,30,17,07,6.40
2016,07,30,17,08,9.60
2016,07,30,17,09,3.20
2016,07,30,17,10,11.30
2016,07,30,17,11,9.60
2016,07,30,17,12,9.60
2016,07,30,17,13,8.10
2016,07,30,17,14,1.60
2016,07,30,17,15,8.10
2016,07,30,17,16,8.10
2016,07,30,17,17,1.60
2016,07,30,17,18,6.40
2016,07,30,17,19,3.20
2016,07,30,17,20,1.60
2016,07,30,17,21,1.60
2016,07,30,17,22,1.60
2016,07,30,17,23,3.20
2016,07,30,17,24,6.40